Edremit Korfez current weather conditions

sailwx.info

Wind from 270 at 6 knots

Air temperature 10.0° C
Visibility: greater than 5.4 NM
Dewpoint 2.0° C

Last reported at 2020-Jan-22 13:50 UTC.
Time now 2020-Jan-22 15:02 UTC

Location: N 39°34' E 027°01'.
View on Google Maps.

See reports from other nearby stations

  
Tides and Currents Weather Stations Pressure Air Temp Water Temp Dewpoint Dewpoint Depression Visibility Wind Speed Wind Dir Waves Ship Positions
date/time (UTC)wind fromknots sea level pressurealtimeterstation pressurevisibilityair tempwater tempwave heightnotes
2020-Jan-22 13:50 270 6 5.410.0
2020-Jan-22 12:50 260 11 5.410.0
2020-Jan-22 11:50 5.412.0
2020-Jan-22 10:50 110 6 5.411.0
2020-Jan-22 09:50 110 11 5.4 9.0
2020-Jan-22 08:50 090 14 5.4 7.0
2020-Jan-22 07:50 090 19 5.4 6.0
2020-Jan-22 06:50 090 15 5.4 4.0
2020-Jan-22 05:50 100 13 5.4 3.0
2020-Jan-22 04:50 100 13 5.4 3.0
2020-Jan-22 03:50 100 11 5.4 3.0
2020-Jan-22 02:50 100 9 5.4 3.0
2020-Jan-22 01:50 080 13 5.4 4.0
2020-Jan-22 00:50 090 15 5.4 4.0
2020-Jan-21 23:50 090 14 5.4 4.0
2020-Jan-21 22:50 080 13 5.4 3.0
2020-Jan-21 21:50 100 13 5.4 4.0
2020-Jan-21 20:50 080 17 5.4 3.0
2020-Jan-21 19:50 080 19 5.4 4.0
2020-Jan-21 18:50 100 11 5.4 4.0
2020-Jan-21 17:50 100 12 5.4 4.0
2020-Jan-21 16:50 090 13 5.4 4.0
2020-Jan-21 15:50 090 13 5.4 4.0
2020-Jan-21 14:50 100 17 5.4 4.0
2020-Jan-21 13:50 090 19 gusting 28 5.4 5.0
2020-Jan-21 12:50 100 13 5.4 5.0
2020-Jan-21 11:50 090 12 5.4 6.0
2020-Jan-21 10:50 090 13 5.4 6.0
2020-Jan-21 09:50 080 11 5.4 5.0
2020-Jan-21 08:50 070 15 5.4 5.0
2020-Jan-21 07:50 070 13 5.4 5.0
2020-Jan-21 06:50 070 13 5.4 5.0
2020-Jan-21 05:50 070 15 5.4 5.0
2020-Jan-21 04:50 080 13 5.4 5.0
2020-Jan-21 03:50 090 9 5.4 4.0
2020-Jan-21 02:50 070 13 5.4 5.0 Heavy funnel cloud/tornado/waterspout.
2020-Jan-21 01:50 060 12 5.4 4.0
2020-Jan-21 00:50 070 13 5.4 4.0
2020-Jan-20 23:50 070 12 5.4 4.0
2020-Jan-20 22:50 080 14 5.4 4.0
2020-Jan-20 21:50 080 11 5.4 4.0
2020-Jan-20 20:50 070 11 5.4 5.0
2020-Jan-20 19:50 070 9 5.4 5.0
2020-Jan-20 18:50 050 13 5.4 5.0
2020-Jan-20 17:50 070 6 5.4 4.0
2020-Jan-20 16:50 060 7 5.4 5.0
2020-Jan-20 15:50 060 14 5.4 6.0